Weather History for KMZZ - June, 2013

Change the Weather History Date:

Friday, June 21, 2013

  Actual Average (KMIE) Record (KMIE)
Temperature  
Mean Temperature 74 °F 73 °F  
Max Temperature 86 °F 83 °F 94 °F (1975)
Min Temperature 61 °F 63 °F 41 °F (1992)
Degree Days  
Heating Degree Days 0 0  
Month to date heating degree days 21  
Since 1 June heating degree days 21  
Since 1 July heating degree days 5780  
Cooling Degree Days 8 8  
Month to date cooling degree days 132  
Year to date cooling degree days 215  
Since 1 June cooling degree days 132  
Growing Degree Days 24 (Base 50)    
Moisture  
Dew Point 58 °F    
Average Humidity 58    
Maximum Humidity 85    
Minimum Humidity 32    
Precipitation  
Precipitation 0.00 in 0.15 in 0.82 in (1974)
Month to date precipitation 3.28  
Year to date precipitation 18.85  
Sea Level Pressure  
Sea Level Pressure 30.17 in    
Wind  
Wind Speed 4 mph (SSW)    
Max Wind Speed 16 mph    
Max Gust Speed 25 mph    
Visibility 9 miles    
Events      
T = Trace of Precipitation, MM = Missing Value Source: NWS Daily Summary

Daily Weather History Graph

Daily Weather History Graph

Search for Another Location

Airport or City:

Trip Planner

Search our weather history database for the weather conditions in past years. The results will help you decide how hot, cold, wet, or windy it might be!

Date:

Astronomy

Jun. 21, 2013 Rise Set
Actual Time 6:12 AM EDT 9:16 PM EDT
Civil Twilight 5:39 AM EDT 9:49 PM EDT
Nautical Twilight 4:56 AM EDT 10:32 PM EDT
Astronomical Twilight 4:06 AM EDT 11:22 PM EDT
Moon 7:26 PM EDT (6/21) 4:27 AM EDT (6/21)
Length of Visible Light 16h 10m
Length of Day
15h 04m
Waxing Gibbous, 95% of the Moon is Illuminated
Jun 21
Waxing Gibbous
Jun 23
Full
Jun 30
Last Quarter
Jul 8
New
Jul 15
First Quarter

Hourly Weather History & Observations

Time (EDT) Temp. Heat Index Dew Point Humidity Pressure Visibility Wind Dir Wind Speed Gust Speed Precip Events Conditions
12:15 AM 70.7 °F - 59.0 °F 66% 30.19 in 10.0 mi Calm Calm - N/A   Clear
12:35 AM 69.6 °F - 59.0 °F 69% 30.19 in 10.0 mi Calm Calm - N/A   Clear
12:55 AM 67.8 °F - 59.2 °F 74% 30.19 in 10.0 mi Calm Calm - N/A   Clear
1:15 AM 66.2 °F - 59.5 °F 79% 30.19 in 7.0 mi Calm Calm - N/A   Clear
1:35 AM 66.2 °F - 59.4 °F 79% 30.19 in 10.0 mi Calm Calm - N/A   Clear
1:55 AM 66.2 °F - 59.4 °F 79% 30.20 in 7.0 mi Calm Calm - N/A   Clear
2:15 AM 66.7 °F - 59.0 °F 76% 30.19 in 10.0 mi Calm Calm - N/A   Clear
2:35 AM 64.9 °F - 58.8 °F 81% 30.19 in 10.0 mi Calm Calm - N/A   Clear
2:55 AM 64.9 °F - 58.8 °F 81% 30.19 in 7.0 mi SSE 3.5 mph - N/A   Clear
3:15 AM 64.0 °F - 58.8 °F 83% 30.19 in 10.0 mi Calm Calm - N/A   Clear
3:35 AM 64.4 °F - 58.5 °F 81% 30.19 in 10.0 mi SSE 3.5 mph - N/A   Clear
3:55 AM 65.5 °F - 57.9 °F 77% 30.19 in 7.0 mi SSE 3.5 mph - N/A   Clear
4:15 AM 64.4 °F - 57.9 °F 79% 30.19 in 10.0 mi SSE 3.5 mph - N/A   Clear
4:35 AM 64.4 °F - 57.7 °F 79% 30.19 in 7.0 mi SSE 4.6 mph - N/A   Clear
4:55 AM 64.0 °F - 57.4 °F 79% 30.19 in 10.0 mi SSE 4.6 mph - N/A   Clear
5:15 AM 64.0 °F - 57.2 °F 78% 30.19 in 10.0 mi Calm Calm - N/A   Clear
5:35 AM 63.1 °F - 57.2 °F 81% 30.20 in 10.0 mi Calm Calm - N/A   Clear
5:55 AM 63.7 °F - 56.8 °F 78% 30.20 in 10.0 mi Calm Calm - N/A   Clear
6:15 AM 62.1 °F - 56.8 °F 83% 30.20 in 7.0 mi SSE 3.5 mph - N/A   Clear
6:35 AM 61.7 °F - 57.0 °F 85% 30.20 in 7.0 mi SSE 3.5 mph - N/A   Clear
6:55 AM 62.8 °F - 57.2 °F 82% 30.20 in 7.0 mi South 3.5 mph - N/A   Clear
7:15 AM 64.4 °F - 57.2 °F 77% 30.20 in 10.0 mi SSE 3.5 mph - N/A   Clear
7:35 AM 65.5 °F - 57.7 °F 76% 30.20 in 10.0 mi SSE 4.6 mph - N/A   Clear
7:55 AM 66.9 °F - 58.3 °F 74% 30.21 in 7.0 mi South 4.6 mph - N/A   Clear
8:15 AM 68.5 °F - 58.6 °F 71% 30.21 in 10.0 mi South 5.8 mph - N/A   Clear
8:35 AM 70.3 °F - 59.4 °F 68% 30.21 in 10.0 mi South 5.8 mph - N/A   Clear
8:55 AM 72.1 °F - 59.4 °F 64% 30.21 in 10.0 mi South 8.1 mph - N/A   Clear
9:15 AM 73.9 °F - 59.4 °F 60% 30.21 in 10.0 mi South 6.9 mph - N/A   Clear
9:35 AM 75.6 °F - 59.5 °F 57% 30.21 in 10.0 mi South 8.1 mph - N/A   Clear
9:55 AM 76.8 °F - 59.7 °F 55% 30.20 in 10.0 mi South 9.2 mph - N/A   Clear
10:15 AM 77.9 °F - 60.3 °F 54% 30.19 in 10.0 mi South 10.4 mph - N/A   Clear
10:35 AM 79.2 °F - 59.7 °F 51% 30.20 in 7.0 mi South 8.1 mph - N/A   Clear
10:55 AM 80.2 °F 80.9 °F 59.4 °F 49% 30.20 in 7.0 mi South 9.2 mph - N/A   Clear
11:15 AM 80.6 °F 81.1 °F 59.4 °F 48% 30.21 in 10.0 mi South 5.8 mph - N/A   Clear
11:35 AM 81.5 °F 81.8 °F 59.2 °F 47% 30.21 in 10.0 mi SW 10.4 mph - N/A   Clear
11:55 AM 82.0 °F 82.2 °F 59.2 °F 46% 30.21 in 7.0 mi SSW 10.4 mph - N/A   Clear
12:15 PM 82.6 °F 82.3 °F 57.7 °F 43% 30.21 in 10.0 mi SW 8.1 mph - N/A   Clear
12:35 PM 82.9 °F 82.4 °F 57.2 °F 41% 30.21 in 10.0 mi SSW 9.2 mph - N/A   Clear
12:55 PM 83.5 °F 82.4 °F 54.7 °F 37% 30.21 in 10.0 mi South 8.1 mph - N/A   Clear
1:15 PM 84.0 °F - 51.3 °F 32% 30.19 in 7.0 mi South 12.7 mph 16.1 mph N/A   Clear
1:35 PM 84.4 °F - 52.0 °F 33% 30.19 in 10.0 mi South 10.4 mph - N/A   Clear
1:55 PM 84.6 °F 83.1 °F 54.3 °F 35% 30.18 in 10.0 mi South 10.4 mph - N/A   Clear
2:15 PM 84.9 °F 83.3 °F 53.4 °F 34% 30.19 in 10.0 mi SSW 10.4 mph - N/A   Clear
2:35 PM 85.1 °F - 52.5 °F 32% 30.19 in 7.0 mi SSW 10.4 mph - N/A   Scattered Clouds
2:55 PM 85.3 °F - 52.9 °F 33% 30.18 in 7.0 mi SSW 9.2 mph 16.1 mph N/A   Scattered Clouds
3:15 PM 85.5 °F 83.7 °F 53.6 °F 33% 30.17 in 7.0 mi SSW 5.8 mph 10.4 mph N/A   Clear
3:35 PM 85.6 °F 83.8 °F 53.2 °F 33% 30.17 in 7.0 mi SW 8.1 mph - N/A   Clear
3:55 PM 85.6 °F 84.0 °F 54.3 °F 34% 30.16 in 10.0 mi SW 8.1 mph - N/A   Clear
4:15 PM 85.8 °F 84.2 °F 54.7 °F 34% 30.16 in 7.0 mi SSW 5.8 mph - N/A   Clear
4:35 PM 86.0 °F 84.2 °F 54.1 °F 33% 30.15 in 10.0 mi WSW 5.8 mph - N/A   Clear
4:55 PM 85.8 °F 84.0 °F 53.6 °F 33% 30.15 in 10.0 mi SW 9.2 mph - N/A   Clear
5:15 PM 85.8 °F 84.2 °F 54.7 °F 34% 30.15 in 7.0 mi SSW 9.2 mph - N/A   Clear
5:35 PM 85.5 °F 83.8 °F 54.0 °F 34% 30.14 in 7.0 mi SW 6.9 mph - N/A   Clear
5:55 PM 85.5 °F 83.8 °F 54.0 °F 34% 30.14 in 7.0 mi SW 6.9 mph - N/A   Clear
6:15 PM 85.1 °F 83.8 °F 55.4 °F 36% 30.14 in 10.0 mi SSW 3.5 mph - N/A   Clear
6:35 PM 84.4 °F 83.5 °F 56.8 °F 39% 30.14 in 7.0 mi SW 5.8 mph - N/A   Clear
6:55 PM 84.0 °F 83.5 °F 57.9 °F 41% 30.14 in 7.0 mi SW 6.9 mph - N/A   Clear
7:15 PM 83.7 °F 83.3 °F 58.5 °F 42% 30.14 in 7.0 mi SSW 5.8 mph - N/A   Clear
7:35 PM 82.8 °F 82.7 °F 59.0 °F 44% 30.14 in 10.0 mi SSW 6.9 mph - N/A   Clear
7:55 PM 81.7 °F 82.0 °F 59.5 °F 47% 30.13 in 10.0 mi SSW 8.1 mph - N/A   Clear
8:15 PM 79.3 °F - 60.3 °F 52% 30.13 in 7.0 mi West 16.1 mph 25.3 mph N/A   Clear
8:35 PM 75.0 °F - 62.4 °F 65% 30.11 in 5.0 mi SW 8.1 mph - N/A   Haze
8:55 PM 74.8 °F - 62.4 °F 65% 30.08 in 10.0 mi South 8.1 mph - N/A   Clear
9:15 PM 75.2 °F - 62.1 °F 64% 30.05 in 10.0 mi SSW 12.7 mph - N/A   Clear
9:35 PM 75.4 °F - 62.1 °F 63% 30.01 in 7.0 mi South 16.1 mph 21.9 mph N/A   Clear
9:55 PM 75.7 °F - 61.5 °F 61% 30.02 in 10.0 mi South 13.8 mph 19.6 mph N/A   Clear
10:15 PM 76.5 °F - 61.0 °F 59% 30.04 in 10.0 mi South 11.5 mph 18.4 mph N/A   Clear
10:35 PM 76.3 °F - 61.2 °F 59% 30.06 in 10.0 mi SSW 6.9 mph - N/A   Clear
10:55 PM 75.9 °F - 61.3 °F 60% 30.10 in 10.0 mi North 4.6 mph - N/A   Clear
11:15 PM 75.4 °F - 61.5 °F 62% 30.12 in 10.0 mi North 3.5 mph - N/A   Clear
11:35 PM 75.0 °F - 61.7 °F 63% 30.13 in 7.0 mi North 3.5 mph - N/A   Clear
11:55 PM 74.7 °F - 61.9 °F 64% 30.14 in 10.0 mi Calm Calm - N/A   Clear